Tracking 30922 objects as of 2-Jul-2025
HD Live streaming from Space Station
objects crossing your sky now

TITAN 3C TRANSTAGE DEB

Track TITAN 3C TRANSTAGE DEB now!


NORAD ID: 26050
Int'l Code: 1965-108AJ
Perigee: 988.6 km
Apogee: 29,855.5 km
Inclination: 26.7 °
Period: 533.6 minutes
Semi major axis: 21793 km
RCS: 0.1424 m2 (medium)
Launch date: December 21, 1965
Source: United States (US)
Launch site: AIR FORCE EASTERN TEST RANGE (AFETR)

Note: This is SATELLITE DEBRIS
Your satellite tracking list
Your tracking list is empty




NASA's NSSDC Master Catalog

Two Line Element Set (TLE):
1 26050U 65108AJ  25181.84387363 -.00000217  00000-0 -43440-2 0  9991
2 26050  26.6937   4.7464 6622965  41.1540 353.3835  2.69852419256733
Source of the keplerian elements: AFSPC